[[{"header":{"parameterUnit":"m.s-1","parameterCategory":1,"la1":30.2991,"la2":30.254,"lo1":-89.0895,"lo2":-89.0444,"dy":0.0017,"dx":0.0017,"nx":28,"ny":28,"refTime":"2023-09-12T09:00:00:Z","depth":0,"parameterNumber":2,"parameterNumberName":"U-component_of_WINDS"},"data":[0,0,0,0,0,0,0,0,0,0,0,0,0,0,0,0,0,0,0,0,0,0,0,0,0,0,0,0,0,0,0,0,0,0,0,0,0,0,0,0,0,0,0,0,0,0,0,0,0,0,0,0,0,0,0,0,0,0,1.5294,1.5295,0,1.5436,1.5438,1.5439,1.5468,1.5467,1.5466,1.5465,1.5614,1.5619,1.5624,0,0,0,0,0,0,0,0,0,0,0,0,0,1.5048,1.5052,1.5293,1.5295,1.5297,1.5436,1.5438,1.544,1.5468,1.5467,1.5466,1.5465,1.5612,1.5618,1.5624,0,0,0,0,0,0,0,0,0,0,0,0,0,1.5169,1.5054,1.5293,1.5328,1.5333,1.5435,1.5438,1.544,1.5469,1.5467,1.5465,1.5464,1.561,1.5618,1.5625,1.5704,0,0,1.5648,1.5651,0,0,0,0,0,0,0,0,1.5162,1.5178,1.5321,1.5326,1.5331,1.5433,1.5406,1.5529,1.5469,1.5417,1.5465,1.5463,1.5555,1.5567,1.5597,1.5711,1.5717,1.5648,1.5653,1.5656,1.5658,0,0,0,0,0,0,0,1.5154,1.5172,1.535,1.5323,1.5329,1.5337,1.5353,1.5429,1.5494,1.5422,1.5424,1.544,1.5558,1.559,1.5601,1.5719,1.5648,1.5655,1.566,1.5662,1.5903,1.5905,0,0,0,0,0,0,1.5139,1.5165,1.5345,1.5354,1.5241,1.5343,1.536,1.5402,1.5493,1.5505,1.5442,1.5441,1.5578,1.5592,1.5607,1.5704,1.5656,1.5663,1.5667,1.5902,1.5904,1.5906,0,0,0,0,0,0,1.5134,1.5155,1.534,1.526,1.5284,1.5349,1.5395,1.5405,1.5438,1.5508,1.552,1.5463,1.5577,1.5596,1.5679,1.5709,1.5667,1.5673,1.5899,1.5902,1.5905,1.5899,0,0,0,0,0,0,1.5126,1.5153,1.5183,1.5261,1.5288,1.5409,1.5397,1.5409,1.545,1.5451,1.5531,1.5543,1.5578,1.5668,1.5686,1.5719,1.5679,1.5897,1.5901,1.5904,1.5897,1.5902,1.5905,0,0,0,0,0,1.5117,1.5177,1.5184,1.5206,1.5328,1.5411,1.5427,1.5465,1.5453,1.5484,1.5529,1.554,1.5703,1.5676,1.5697,1.5732,1.5895,1.59,1.5904,1.5895,1.5901,1.5905,0,0,0,0,0,0,1.5102,1.5187,1.5197,1.5283,1.5339,1.5415,1.5456,1.547,1.5531,1.553,1.5575,1.5593,1.5673,1.5711,1.5679,1.5813,1.5799,1.5807,1.5785,1.5791,1.5795,1.5783,1.5685,0,0,0,0,0,1.5108,1.5168,1.524,1.5309,1.5336,1.5391,1.5429,1.5453,1.5514,1.5538,1.5589,1.5648,1.5712,1.5754,1.5817,1.5903,1.592,1.5938,1.5942,1.5945,1.5952,1.5999,1.6007,1.592,1.592,1.592,0,0,1.5122,1.5176,1.5211,1.5307,1.5353,1.5414,1.5411,1.5476,1.5522,1.5548,1.5629,1.5668,1.5737,1.5821,1.5861,1.5856,1.598,1.595,1.5952,1.5958,1.6004,1.6012,1.602,1.5923,1.5923,1.5922,0,0,1.5178,1.5226,1.5288,1.5334,1.5404,1.544,1.5454,1.5529,1.5555,1.5637,1.5657,1.5713,1.5823,1.5871,1.591,1.5983,1.5996,1.6003,1.6025,1.607,1.6077,1.6083,1.6108,1.6117,1.6009,1.6009,1.6009,0,1.5187,1.5279,1.5318,1.5382,1.5423,1.5448,1.5511,1.5554,1.5642,1.567,1.5662,1.58,1.5848,1.5943,1.5961,1.5992,1.601,1.5993,1.6072,1.6079,1.6086,1.611,1.6119,1.601,1.601,1.601,1.601,0,1.5286,1.5349,1.5391,1.5473,1.5519,1.5582,1.5631,1.5673,1.5693,1.5729,1.5812,1.587,1.5945,1.597,1.5991,1.6068,1.6062,1.6063,1.605,1.6093,1.6117,1.6127,1.601,1.601,1.601,1.601,0,0,1.5336,1.5438,1.5453,1.549,1.5568,1.5619,1.5683,1.5755,1.5789,1.5849,1.5903,1.5995,1.5996,1.604,1.6067,1.6107,1.6159,1.6103,1.6105,1.611,1.6247,1.6244,1.6254,1.6169,1.6171,1.6172,1.624,0,1.5401,1.5515,1.5551,1.5647,1.5705,1.573,1.5786,1.584,1.5876,1.5932,1.5972,1.6036,1.6033,1.6059,1.61,1.6144,1.6187,1.614,1.622,1.6222,1.62,1.6267,1.6266,1.6327,1.625,1.6252,1.6253,0,1.5492,1.5551,1.5652,1.5722,1.5748,1.5797,1.5866,1.5919,1.5981,1.6004,1.6052,1.6075,1.6143,1.6126,1.622,1.6187,1.6222,1.6249,1.6252,1.626,1.6239,1.6276,1.6348,1.6356,1.6268,1.6267,1.6266,0,1.5517,1.5622,1.5696,1.5727,1.5811,1.5845,1.5881,1.5942,1.5982,1.6043,1.6069,1.6137,1.6174,1.6226,1.6267,1.625,1.6357,1.6343,1.6378,1.6377,1.6398,1.6396,1.6475,1.6422,1.6422,1.6422,1.6422,0,1.5585,1.5645,1.5708,1.5753,1.5821,1.5862,1.5929,1.5967,1.6021,1.6074,1.61,1.6149,1.6201,1.6257,1.629,1.6362,1.6379,1.6399,1.6407,1.6396,1.6393,1.6419,1.6415,1.6425,1.6424,1.6424,1.6423,0,1.5623,1.5668,1.5749,1.5822,1.5842,1.5888,1.5951,1.5996,1.6032,1.6099,1.6117,1.6175,1.6243,1.6288,1.6375,1.6397,1.6475,1.6483,1.6453,1.6457,1.6488,1.6484,1.6586,1.6601,1.6539,1.6539,1.654,0,1.5663,1.571,1.5787,1.5824,1.586,1.592,1.5961,1.6004,1.6045,1.6119,1.6155,1.6224,1.6281,1.6388,1.6438,1.6504,1.6513,1.6544,1.6523,1.651,1.6512,1.6508,1.6513,1.6547,1.6547,1.6548,1.6548,0,1.5729,1.5748,1.5806,1.5871,1.5919,1.5973,1.6027,1.6056,1.6108,1.6154,1.6223,1.6267,1.6355,1.6423,1.6493,1.6532,1.6549,1.6554,1.6566,1.6555,1.6535,1.6545,1.6461,1.6552,1.6551,1.6551,1.6551,1.6551,1.5769,1.5811,1.5871,1.5934,1.5979,1.6029,1.6074,1.6116,1.6174,1.6248,1.627,1.6341,1.6401,1.6498,1.6537,1.6594,1.6591,1.6608,1.6612,1.6615,1.6614,1.6527,1.6607,1.6607,1.6607,1.6607,1.6607,0,1.5834,1.5874,1.5932,1.6006,1.6056,1.6066,1.6127,1.6168,1.6229,1.6284,1.6339,1.6418,1.6483,1.6538,1.6606,1.6641,1.665,1.6657,1.6654,1.6663,1.6613,1.6596,1.6648,1.6648,1.6648,1.6648,1.6648,1.6648,1.5874,1.5945,1.5972,1.6066,1.6106,1.6175,1.6208,1.6254,1.6297,1.6383,1.6437,1.6472,1.6527,1.6599,1.666,1.6674,1.6698,1.6703,1.6719,1.6671,1.6667,1.6662,1.6646,1.6708,1.6708,1.6764,1.6764,1.6765]},{"header":{"parameterUnit":"m.s-1","parameterCategory":1,"la1":30.2991,"la2":30.254,"lo1":-89.0895,"lo2":-89.0444,"dy":0.0017,"dx":0.0017,"nx":28,"ny":28,"refTime":"2023-09-12T09:00:00:Z","depth":0,"parameterNumber":3,"parameterNumberName":"V-component_of_WINDS"},"data":[0,0,0,0,0,0,0,0,0,0,0,0,0,0,0,0,0,0,0,0,0,0,0,0,0,0,0,0,0,0,0,0,0,0,0,0,0,0,0,0,0,0,0,0,0,0,0,0,0,0,0,0,0,0,0,0,0,0,3.8744,3.8744,0,3.8674,3.8673,3.8673,3.8619,3.8619,3.8618,3.8618,3.8542,3.854,3.8538,0,0,0,0,0,0,0,0,0,0,0,0,0,3.8828,3.8827,3.8744,3.8744,3.8743,3.8674,3.8673,3.8672,3.8619,3.8619,3.8618,3.8618,3.8542,3.854,3.8538,0,0,0,0,0,0,0,0,0,0,0,0,0,3.8778,3.8826,3.8745,3.8708,3.8704,3.8675,3.8673,3.8672,3.862,3.8619,3.8618,3.8617,3.8543,3.854,3.8538,3.8538,0,0,3.8531,3.853,0,0,0,0,0,0,0,0,3.8781,3.8775,3.8714,3.8711,3.8706,3.8655,3.8675,3.8627,3.862,3.8652,3.8618,3.8617,3.858,3.8574,3.8562,3.8534,3.8531,3.8531,3.8529,3.8528,3.8527,0,0,0,0,0,0,0,3.8784,3.8778,3.8716,3.8714,3.8708,3.8694,3.8686,3.8665,3.862,3.8649,3.8645,3.8637,3.8577,3.8565,3.856,3.853,3.8531,3.8529,3.8527,3.8526,3.8495,3.8495,0,0,0,0,0,0,3.8794,3.8781,3.8719,3.8714,3.8743,3.8693,3.8684,3.8672,3.862,3.8612,3.8638,3.8635,3.8569,3.8563,3.8557,3.8551,3.8528,3.8526,3.8525,3.8494,3.8495,3.8495,0,0,0,0,0,0,3.8796,3.8789,3.8722,3.8747,3.8737,3.8692,3.8679,3.8671,3.8659,3.8612,3.8604,3.8634,3.8568,3.8561,3.8543,3.8548,3.8525,3.8523,3.8493,3.8494,3.8495,3.8541,0,0,0,0,0,0,3.8799,3.879,3.8791,3.8747,3.8736,3.871,3.8679,3.867,3.8655,3.8651,3.8606,3.8598,3.8567,3.8546,3.854,3.8544,3.8521,3.8493,3.8494,3.8495,3.8539,3.8543,3.8547,0,0,0,0,0,3.8802,3.8806,3.8791,3.8784,3.8736,3.871,3.8704,3.8669,3.8656,3.8655,3.8625,3.86,3.8549,3.8545,3.8538,3.8541,3.8492,3.8493,3.8495,3.8537,3.8542,3.8547,0,0,0,0,0,0,3.885,3.88,3.8783,3.8773,3.8747,3.8701,3.87,3.8677,3.8652,3.8649,3.8606,3.8596,3.8582,3.856,3.8557,3.8537,3.8517,3.8517,3.8552,3.8556,3.8561,3.8565,3.8519,0,0,0,0,0,3.886,3.8845,3.8801,3.8797,3.8785,3.8745,3.8732,3.8708,3.8678,3.8666,3.8635,3.8606,3.8583,3.8569,3.8545,3.8536,3.8524,3.8534,3.8538,3.8542,3.8542,3.8532,3.8536,3.85,3.85,3.85,0,0,3.888,3.885,3.8843,3.8806,3.8783,3.8766,3.8735,3.872,3.8706,3.8663,3.8644,3.8621,3.8585,3.857,3.8562,3.8551,3.8549,3.8544,3.8547,3.8545,3.8534,3.8538,3.8541,3.8501,3.85,3.85,0,0,3.8907,3.8884,3.8877,3.8854,3.882,3.8793,3.8792,3.875,3.8732,3.8713,3.868,3.8662,3.8625,3.86,3.8583,3.8599,3.8574,3.8593,3.8614,3.8606,3.8609,3.8611,3.8614,3.8617,3.8593,3.8593,3.8593,0,3.8935,3.8911,3.8876,3.8862,3.8845,3.8807,3.8798,3.8778,3.8737,3.8725,3.8714,3.8665,3.8638,3.8616,3.862,3.8608,3.8603,3.8597,3.8611,3.8613,3.8615,3.8618,3.8619,3.8596,3.8595,3.8595,3.8595,0,3.8946,3.8929,3.8927,3.889,3.8873,3.8862,3.8824,3.8811,3.8788,3.8762,3.8742,3.8708,3.8677,3.867,3.8647,3.8644,3.8638,3.862,3.8599,3.8621,3.8623,3.8624,3.8599,3.8598,3.8598,3.8597,0,0,3.9,3.8944,3.8944,3.8925,3.8884,3.887,3.8856,3.8826,3.8815,3.8788,3.8773,3.8742,3.8724,3.8705,3.8679,3.8672,3.8684,3.8653,3.8652,3.8658,3.8675,3.8688,3.869,3.8668,3.8668,3.8668,3.8678,0,3.9019,3.8994,3.8962,3.8946,3.8929,3.8892,3.888,3.8852,3.8827,3.8808,3.8779,3.8757,3.8737,3.8724,3.8716,3.8684,3.8686,3.8683,3.8651,3.865,3.866,3.8692,3.8705,3.8716,3.8678,3.8679,3.8679,0,3.9037,3.9013,3.8996,3.8955,3.8947,3.8937,3.8906,3.8889,3.8856,3.8838,3.8816,3.8788,3.8769,3.8752,3.8724,3.8722,3.8707,3.869,3.8689,3.8683,3.8665,3.8685,3.8719,3.872,3.868,3.868,3.868,0,3.9075,3.9039,3.9024,3.9009,3.8962,3.8955,3.8935,3.8901,3.8885,3.8858,3.8846,3.8817,3.88,3.8777,3.8741,3.8732,3.8716,3.8696,3.8698,3.8699,3.8695,3.8695,3.8726,3.8689,3.8689,3.8689,3.8689,0,3.9098,3.9089,3.904,3.9031,3.9018,3.8981,3.897,3.8946,3.8916,3.8899,3.8866,3.8851,3.8805,3.8784,3.8756,3.8735,3.8728,3.8711,3.8704,3.8713,3.8715,3.8702,3.8699,3.8689,3.8689,3.8689,3.8689,0,3.9138,3.9106,3.9086,3.9044,3.9032,3.9025,3.8987,3.8975,3.8949,3.8928,3.8921,3.8878,3.8852,3.8814,3.8775,3.8756,3.8739,3.8728,3.875,3.8745,3.8749,3.8748,3.877,3.877,3.8735,3.8736,3.8736,0,3.9154,3.9146,3.9103,3.909,3.9071,3.9051,3.9035,3.8998,3.8981,3.8943,3.8935,3.8906,3.8881,3.8839,3.8803,3.8773,3.8759,3.8769,3.8754,3.8764,3.8756,3.8757,3.8755,3.8772,3.8772,3.8773,3.8773,0,3.9185,3.9169,3.9147,3.912,3.9102,3.9078,3.9052,3.9043,3.9,3.8983,3.8956,3.8937,3.8897,3.8868,3.8833,3.8809,3.8783,3.8778,3.8777,3.8786,3.8798,3.879,3.8758,3.8778,3.8777,3.8777,3.8777,3.8776,3.9211,3.9202,3.917,3.9147,3.9124,3.9101,3.9087,3.9059,3.9037,3.9003,3.8982,3.8956,3.8921,3.8871,3.8849,3.8825,3.8815,3.8813,3.8813,3.8812,3.8815,3.8804,3.8819,3.8819,3.8819,3.8819,3.8818,0,3.9238,3.9216,3.9195,3.9161,3.9142,3.9122,3.9092,3.9077,3.9055,3.9026,3.9002,3.897,3.8941,3.8903,3.8871,3.8859,3.8846,3.8852,3.8851,3.8846,3.8827,3.8831,3.8863,3.8863,3.8863,3.8863,3.8863,3.8863,3.925,3.9233,3.9213,3.9183,3.916,3.9136,3.912,3.9098,3.9074,3.9041,3.9017,3.8994,3.896,3.8925,3.8897,3.8886,3.8875,3.8883,3.8869,3.8851,3.8847,3.8844,3.8847,3.8882,3.8882,3.8889,3.8889,3.889]}]]